Weather History for Marianna, FL

Change the Weather History Date:

Thursday, May 2, 2013

  Actual Average Record
Temperature  
Mean Temperature 71 °F 71 °F  
Max Temperature 78 °F 84 °F 91 °F (2002)
Min Temperature 63 °F 59 °F 48 °F (2005)
Degree Days  
Heating Degree Days 0    
Month to date heating degree days 0  
Since 1 July heating degree days 1356  
Cooling Degree Days 6    
Month to date cooling degree days 9  
Year to date cooling degree days 183  
Growing Degree Days 20 (Base 50)    
Moisture  
Dew Point 62 °F    
Average Humidity 77    
Maximum Humidity 93    
Minimum Humidity 60    
Precipitation  
Precipitation 0.06 in 0.06 in 0.08 in (2003)
Month to date precipitation 0.20 0.11  
Year to date precipitation 20.43 19.34  
Sea Level Pressure  
Sea Level Pressure 29.97 in    
Wind  
Wind Speed 11 mph (ENE)    
Max Wind Speed 25 mph    
Max Gust Speed 33 mph    
Visibility 10 miles    
Events Rain    
T = Trace of Precipitation, MM = Missing Value Source: NWS Daily Summary

Daily Weather History Graph

Daily Weather History Graph

Search for Another Location

Airport:

Trip Planner

Search our weather history database for the weather conditions in past years. The results will help you decide how hot, cold, wet, or windy it might be!

Date:

Astronomy

May. 02, 2013 Rise Set
Actual Time 5:55 AM CDT 7:20 PM CDT
Civil Twilight 5:29 AM CDT 7:45 PM CDT
Nautical Twilight 4:59 AM CDT 8:16 PM CDT
Astronomical Twilight 4:27 AM CDT 8:48 PM CDT
Moon 1:12 AM CDT (5/2) 12:37 PM CDT (5/2)
Length of Visible Light 14h 16m
Length of Day
13h 24m
Waning Gibbous, 47% of the Moon is Illuminated
May 2
Waning Gibbous
May 9
New
May 17
First Quarter
May 24
Full
May 31
Last Quarter

Hourly Weather History & Observations

Time (CDT) Temp. Dew Point Humidity Pressure Visibility Wind Dir Wind Speed Gust Speed Precip Events Conditions
12:53 AM 64.9 °F 61.0 °F 87% 30.01 in 10.0 mi ENE 9.2 mph - N/A   Overcast
1:53 AM 64.0 °F 61.0 °F 90% 30.00 in 10.0 mi ENE 8.1 mph - N/A   Overcast
2:28 AM 62.6 °F 60.8 °F 94% 30.00 in 10.0 mi ENE 8.1 mph - N/A   Mostly Cloudy
2:53 AM 63.0 °F 60.1 °F 90% 29.99 in 10.0 mi East 10.4 mph - N/A   Overcast
3:11 AM 62.6 °F 59.0 °F 88% 29.99 in 10.0 mi ENE 10.4 mph - N/A   Overcast
3:53 AM 63.0 °F 59.0 °F 87% 30.00 in 10.0 mi ENE 8.1 mph - N/A   Overcast
4:53 AM 63.0 °F 59.0 °F 87% 29.99 in 10.0 mi ENE 8.1 mph - N/A   Overcast
5:27 AM 62.6 °F 59.0 °F 88% 29.99 in 10.0 mi ENE 9.2 mph - N/A   Overcast
5:51 AM 62.6 °F 59.0 °F 88% 29.99 in 10.0 mi ENE 9.2 mph - N/A   Mostly Cloudy
5:53 AM 63.0 °F 59.0 °F 87% 29.99 in 10.0 mi ENE 9.2 mph - N/A   Mostly Cloudy
6:53 AM 64.0 °F 60.1 °F 87% 30.01 in 10.0 mi ENE 11.5 mph - N/A   Overcast
7:53 AM 66.0 °F 61.0 °F 84% 30.01 in 10.0 mi ENE 10.4 mph - N/A   Overcast
8:53 AM 66.9 °F 62.1 °F 84% 30.02 in 10.0 mi ENE 10.4 mph - N/A   Overcast
9:53 AM 69.1 °F 63.0 °F 81% 30.01 in 10.0 mi ENE 11.5 mph - N/A   Overcast
10:53 AM 71.1 °F 64.0 °F 78% 30.01 in 10.0 mi East 9.2 mph 18.4 mph N/A   Overcast
11:53 AM 73.0 °F 64.9 °F 76% 30.00 in 10.0 mi ENE 10.4 mph - N/A   Overcast
12:53 PM 75.0 °F 64.0 °F 69% 29.98 in 10.0 mi East 13.8 mph 19.6 mph N/A   Overcast
1:53 PM 77.0 °F 63.0 °F 62% 29.96 in 10.0 mi ENE 19.6 mph 26.5 mph N/A   Overcast
2:53 PM 77.0 °F 63.0 °F 62% 29.95 in 10.0 mi ENE 21.9 mph 28.8 mph N/A   Scattered Clouds
3:53 PM 75.0 °F 64.0 °F 69% 29.93 in 10.0 mi ENE 17.3 mph 24.2 mph N/A   Mostly Cloudy
4:08 PM 75.2 °F 62.6 °F 65% 29.93 in 10.0 mi ENE 20.7 mph 28.8 mph N/A   Overcast
4:19 PM 75.2 °F 64.4 °F 69% 29.93 in 10.0 mi East 15.0 mph - N/A   Overcast
4:53 PM 75.0 °F 64.0 °F 69% 29.93 in 10.0 mi ENE 12.7 mph - N/A   Overcast
5:53 PM 73.0 °F 63.0 °F 71% 29.94 in 8.0 mi East 12.7 mph 21.9 mph 0.00 in Rain Light Rain
6:53 PM 69.1 °F 62.1 °F 78% 29.96 in 10.0 mi East 13.8 mph 24.2 mph 0.00 in Rain Light Rain
7:53 PM 66.9 °F 64.0 °F 90% 29.96 in 10.0 mi ENE 6.9 mph - 0.01 in   Overcast
8:53 PM 66.9 °F 64.0 °F 90% 29.96 in 10.0 mi ENE 6.9 mph - 0.00 in   Overcast
9:53 PM 66.9 °F 64.0 °F 90% 29.96 in 10.0 mi ENE 9.2 mph - 0.00 in   Overcast
10:53 PM 66.9 °F 64.0 °F 90% 29.96 in 10.0 mi NE 8.1 mph - N/A   Overcast
11:23 PM 66.2 °F 62.6 °F 88% 29.95 in 10.0 mi NE 6.9 mph - 0.00 in   Overcast
11:30 PM 66.2 °F 62.6 °F 88% 29.95 in 10.0 mi NE 8.1 mph - 0.00 in   Overcast
11:38 PM 66.2 °F 62.6 °F 88% 29.95 in 10.0 mi NE 8.1 mph - 0.00 in   Overcast
11:53 PM 66.9 °F 63.0 °F 87% 29.94 in 10.0 mi NE 10.4 mph - 0.00 in   Overcast